Weather History for Flint, MI

Change the Weather History Date:

Friday, October 4, 2013

  Actual Average Record
Temperature  
Mean Temperature 74 °F 54 °F  
Max Temperature 81 °F 65 °F 88 °F (1951)
Min Temperature 67 °F 43 °F 27 °F (1996)
Degree Days  
Heating Degree Days 0 12  
Month to date heating degree days 2 45  
Since 1 July heating degree days 176 255  
Cooling Degree Days 9 0  
Month to date cooling degree days 10 2  
Year to date cooling degree days 753 528  
Growing Degree Days 24 (Base 50)    
Moisture  
Dew Point 64 °F    
Average Humidity 71    
Maximum Humidity 87    
Minimum Humidity 54    
Precipitation  
Precipitation 0.05 in 0.09 in 1.21 in (2006)
Month to date precipitation 0.05 0.38  
Year to date precipitation 26.25 24.69  
Snow  
Snow 0.00 in 0.00 in 0.00 in ()
Month to date snowfall 0.0 0.0  
Since 1 July snowfall 0.0 0.0  
Since 1 September snowfall 0.0 0.0  
Snow Depth 0.00 in    
Sea Level Pressure  
Sea Level Pressure 29.99 in    
Wind  
Wind Speed 5 mph (West)    
Max Wind Speed 12 mph    
Max Gust Speed 16 mph    
Visibility 10 miles    
Events Rain , Thunderstorm    
T = Trace of Precipitation, MM = Missing Value Source: NWS Daily Summary

Daily Weather History Graph

Daily Weather History Graph

Search for Another Location

Airport:

Trip Planner

Search our weather history database for the weather conditions in past years. The results will help you decide how hot, cold, wet, or windy it might be!

Date:

Astronomy

Oct. 04, 2013 Rise Set
Actual Time 7:35 AM EDT 7:10 PM EDT
Civil Twilight 7:07 AM EDT 7:38 PM EDT
Nautical Twilight 6:34 AM EDT 8:11 PM EDT
Astronomical Twilight 6:01 AM EDT 8:44 PM EDT
Moon 7:10 AM EDT (10/4) 6:51 PM EDT (10/4)
Length of Visible Light 12h 31m
Length of Day
11h 34m
Waning Crescent, 0% of the Moon is Illuminated
Oct 4
Waning Crescent
Oct 4
New
Oct 11
First Quarter
Oct 18
Full
Oct 26
Last Quarter

Hourly Weather History & Observations

Time (EDT) Temp. Heat Index Dew Point Humidity Pressure Visibility Wind Dir Wind Speed Gust Speed Precip Events Conditions
12:53 AM 66.9 °F - 63.0 °F 87% 29.93 in 10.0 mi South 5.8 mph - N/A   Mostly Cloudy
1:53 AM 69.1 °F - 64.0 °F 84% 29.94 in 10.0 mi SW 5.8 mph - N/A   Clear
2:53 AM 69.1 °F - 64.0 °F 84% 29.95 in 9.0 mi SW 4.6 mph - 0.05 in Rain Light Rain
3:09 AM 68.0 °F - 64.4 °F 88% 29.97 in 10.0 mi WSW 6.9 mph - N/A Thunderstorm Overcast
3:53 AM 68.0 °F - 64.0 °F 87% 29.94 in 8.0 mi Calm Calm - 0.00 in Thunderstorm Thunderstorm
4:16 AM 66.2 °F - 64.4 °F 94% 29.95 in 5.0 mi South 5.8 mph - N/A   Mostly Cloudy
4:53 AM 66.9 °F - 64.0 °F 90% 29.93 in 8.0 mi South 6.9 mph - N/A   Partly Cloudy
5:53 AM 68.0 °F - 63.0 °F 84% 29.93 in 10.0 mi South 9.2 mph - N/A   Clear
6:53 AM 68.0 °F - 63.0 °F 84% 29.95 in 9.0 mi WSW 5.8 mph - N/A   Mostly Cloudy
7:53 AM 66.9 °F - 63.0 °F 87% 29.99 in 8.0 mi West 5.8 mph - N/A   Mostly Cloudy
8:53 AM 69.1 °F - 64.0 °F 84% 30.00 in 8.0 mi WNW 3.5 mph - N/A   Overcast
9:53 AM 71.1 °F - 63.0 °F 75% 30.00 in 10.0 mi WNW 5.8 mph - N/A   Partly Cloudy
10:53 AM 73.0 °F - 64.0 °F 73% 30.01 in 10.0 mi West 4.6 mph - N/A   Partly Cloudy
11:53 AM 78.1 °F - 64.9 °F 64% 30.00 in 10.0 mi West 5.8 mph - N/A   Mostly Cloudy
12:09 PM 77.0 °F - 64.4 °F 65% 30.01 in 10.0 mi West 6.9 mph - N/A   Mostly Cloudy
12:53 PM 77.0 °F - 64.0 °F 64% 30.00 in 10.0 mi West 6.9 mph - N/A   Mostly Cloudy
1:07 PM 78.8 °F - 64.4 °F 61% 30.01 in 10.0 mi West 8.1 mph - N/A   Scattered Clouds
1:53 PM 80.1 °F 81.7 °F 64.0 °F 58% 30.00 in 10.0 mi WNW 4.6 mph - N/A   Scattered Clouds
2:53 PM 80.1 °F 81.5 °F 63.0 °F 56% 29.98 in 10.0 mi Calm Calm - N/A   Partly Cloudy
3:53 PM 79.0 °F - 64.9 °F 62% 29.98 in 10.0 mi West 5.8 mph - N/A   Clear
4:25 PM 80.6 °F 82.3 °F 64.4 °F 58% 29.99 in 10.0 mi WSW 5.8 mph - N/A   Mostly Cloudy
4:33 PM 80.6 °F 82.3 °F 64.4 °F 58% 29.99 in 10.0 mi SSW 4.6 mph - N/A   Scattered Clouds
4:53 PM 79.0 °F - 64.0 °F 60% 29.99 in 10.0 mi SW 6.9 mph - N/A   Scattered Clouds
5:53 PM 77.0 °F - 64.9 °F 66% 29.99 in 10.0 mi Calm Calm - N/A   Scattered Clouds
6:53 PM 75.9 °F - 64.9 °F 69% 30.00 in 10.0 mi Calm Calm - N/A   Scattered Clouds
7:53 PM 72.0 °F - 64.9 °F 78% 30.01 in 10.0 mi North 10.4 mph - N/A   Scattered Clouds
8:53 PM 69.1 °F - 64.0 °F 84% 30.02 in 10.0 mi NE 8.1 mph - N/A   Partly Cloudy
9:53 PM 69.1 °F - 64.0 °F 84% 30.03 in 10.0 mi ENE 5.8 mph - N/A   Mostly Cloudy
10:06 PM 69.8 °F - 64.4 °F 83% 30.04 in 10.0 mi ENE 9.2 mph - N/A   Mostly Cloudy
10:41 PM 69.8 °F - 64.4 °F 83% 30.03 in 10.0 mi ENE 8.1 mph - N/A   Scattered Clouds
10:53 PM 69.1 °F - 64.0 °F 84% 30.02 in 10.0 mi East 6.9 mph - N/A   Partly Cloudy
11:11 PM 69.8 °F - 64.4 °F 83% 30.04 in 10.0 mi Calm Calm - N/A   Mostly Cloudy
11:20 PM 68.0 °F - 64.4 °F 88% 30.05 in 10.0 mi NNE 4.6 mph - N/A   Mostly Cloudy
11:48 PM 69.8 °F - 64.4 °F 83% 30.05 in 10.0 mi NNE 4.6 mph - N/A   Overcast
11:53 PM 69.1 °F - 64.0 °F 84% 30.04 in 10.0 mi NNE 4.6 mph - N/A   Overcast